Time,TemperatureF,DewpointF,PressureIn,WindDirection,WindDirectionDegrees,WindSpeedMPH,WindSpeedGustMPH,Humidity,HourlyPrecipIn,Conditions,Clouds,dailyrainin,SoftwareType,DateUTC
2013-04-04 00:00:00,46.9,25.0,30.08,East,79,7.0,13.0,42,0.00,,---,0.00,VWS V14.01,2013-04-04 05:00:00,
2013-04-04 00:05:00,46.8,24.9,30.07,East,83,10.0,14.0,42,0.00,,---,0.00,VWS V14.01,2013-04-04 05:05:00,
2013-04-04 00:10:00,46.7,25.4,30.07,East,92,3.0,14.0,43,0.00,,---,0.00,VWS V14.01,2013-04-04 05:10:00,
2013-04-04 00:15:00,46.7,25.4,30.07,East,89,5.0,15.0,43,0.00,,---,0.00,VWS V14.01,2013-04-04 05:15:00,
2013-04-04 00:20:00,46.6,24.8,30.06,East,83,9.0,15.0,42,0.00,,---,0.00,VWS V14.01,2013-04-04 05:20:00,
2013-04-04 00:25:00,46.5,25.2,30.06,East,99,5.0,15.0,43,0.00,,---,0.00,VWS V14.01,2013-04-04 05:25:00,
2013-04-04 00:30:00,46.5,24.7,30.06,East,98,5.0,15.0,42,0.00,,---,0.00,VWS V14.01,2013-04-04 05:30:00,
2013-04-04 00:35:00,46.3,25.0,30.06,ENE,71,7.0,8.0,43,0.00,,---,0.00,VWS V14.01,2013-04-04 05:35:00,
2013-04-04 00:40:00,46.3,24.5,30.06,East,92,9.0,12.0,42,0.00,,---,0.00,VWS V14.01,2013-04-04 05:40:00,
2013-04-04 00:45:00,46.3,25.0,30.06,East,80,5.0,12.0,43,0.00,,---,0.00,VWS V14.01,2013-04-04 05:45:00,
2013-04-04 00:50:00,46.1,24.9,30.06,ENE,70,3.0,12.0,43,0.00,,---,0.00,VWS V14.01,2013-04-04 05:50:00,
2013-04-04 00:55:00,46.0,24.8,30.06,East,92,5.0,12.0,43,0.00,,---,0.00,VWS V14.01,2013-04-04 05:55:00,
2013-04-04 01:00:00,46.0,24.8,30.06,ENE,63,5.0,12.0,43,0.00,,---,0.00,VWS V14.01,2013-04-04 06:00:00,
2013-04-04 01:05:00,46.0,24.8,30.06,ESE,110,4.0,11.0,43,0.00,,---,0.00,VWS V14.01,2013-04-04 06:05:00,
2013-04-04 01:10:00,46.0,24.8,30.06,East,85,4.0,11.0,43,0.00,,---,0.00,VWS V14.01,2013-04-04 06:10:00,
2013-04-04 01:15:00,45.9,25.2,30.06,East,90,7.0,11.0,44,0.00,,---,0.00,VWS V14.01,2013-04-04 06:15:00,
2013-04-04 01:20:00,45.8,24.6,30.05,East,84,4.0,11.0,43,0.00,,---,0.00,VWS V14.01,2013-04-04 06:20:00,
2013-04-04 01:25:00,45.9,24.7,30.05,NE,53,4.0,11.0,43,0.00,,---,0.00,VWS V14.01,2013-04-04 06:25:00,
2013-04-04 01:30:00,45.8,24.6,30.05,ENE,61,5.0,11.0,43,0.00,,---,0.00,VWS V14.01,2013-04-04 06:30:00,
2013-04-04 01:35:00,45.7,24.5,30.04,ENE,69,3.0,10.0,43,0.00,,---,0.00,VWS V14.01,2013-04-04 06:35:00,
2013-04-04 01:40:00,45.6,25.0,30.04,NE,55,2.0,10.0,44,0.00,,---,0.00,VWS V14.01,2013-04-04 06:40:00,
2013-04-04 01:45:00,45.6,25.0,30.04,ENE,76,5.0,10.0,44,0.00,,---,0.00,VWS V14.01,2013-04-04 06:45:00,
2013-04-04 01:50:00,45.5,24.9,30.04,ENE,71,7.0,10.0,44,0.00,,---,0.00,VWS V14.01,2013-04-04 06:50:00,
2013-04-04 01:55:00,45.5,24.9,30.04,East,95,6.0,10.0,44,0.00,,---,0.00,VWS V14.01,2013-04-04 06:55:00,
2013-04-04 02:00:00,45.5,24.9,30.04,East,88,4.0,10.0,44,0.00,,---,0.00,VWS V14.01,2013-04-04 07:00:00,
2013-04-04 02:05:00,45.4,24.8,30.03,East,81,9.0,9.0,44,0.00,,---,0.00,VWS V14.01,2013-04-04 07:05:00,
2013-04-04 02:10:00,45.3,24.7,30.03,NE,44,4.0,9.0,44,0.00,,---,0.00,VWS V14.01,2013-04-04 07:10:00,
2013-04-04 02:15:00,45.3,24.7,30.03,SE,130,7.0,10.0,44,0.00,,---,0.00,VWS V14.01,2013-04-04 07:15:00,
2013-04-04 02:20:00,45.3,24.7,30.02,ENE,70,3.0,12.0,44,0.00,,---,0.00,VWS V14.01,2013-04-04 07:20:00,
2013-04-04 02:25:00,45.1,24.5,30.02,East,99,7.0,12.0,44,0.00,,---,0.00,VWS V14.01,2013-04-04 07:25:00,
2013-04-04 02:30:00,45.0,24.4,30.02,ENE,59,6.0,12.0,44,0.00,,---,0.00,VWS V14.01,2013-04-04 07:30:00,
2013-04-04 02:35:00,45.0,24.4,30.01,East,83,5.0,11.0,44,0.00,,---,0.00,VWS V14.01,2013-04-04 07:35:00,
2013-04-04 02:40:00,45.0,25.0,30.01,NE,53,5.0,11.0,45,0.00,,---,0.00,VWS V14.01,2013-04-04 07:40:00,
2013-04-04 02:45:00,44.9,24.9,30.01,East,85,5.0,11.0,45,0.00,,---,0.00,VWS V14.01,2013-04-04 07:45:00,
2013-04-04 02:50:00,44.9,24.9,30.00,ENE,64,3.0,11.0,45,0.00,,---,0.00,VWS V14.01,2013-04-04 07:50:00,
2013-04-04 02:55:00,44.8,25.3,30.00,East,93,5.0,11.0,46,0.00,,---,0.00,VWS V14.01,2013-04-04 07:55:00,
2013-04-04 03:00:00,44.7,25.2,30.00,ENE,67,2.0,11.0,46,0.00,,---,0.00,VWS V14.01,2013-04-04 08:00:00,
2013-04-04 03:05:00,44.6,24.6,30.00,ENE,76,3.0,10.0,45,0.00,,---,0.00,VWS V14.01,2013-04-04 08:05:00,
2013-04-04 03:10:00,44.6,25.1,30.00,East,80,5.0,10.0,46,0.00,,---,0.00,VWS V14.01,2013-04-04 08:10:00,
2013-04-04 03:15:00,44.5,24.5,30.00,East,81,3.0,10.0,45,0.00,,---,0.00,VWS V14.01,2013-04-04 08:15:00,
2013-04-04 03:20:00,44.5,25.0,30.00,ENE,70,2.0,10.0,46,0.00,,---,0.00,VWS V14.01,2013-04-04 08:20:00,
2013-04-04 03:25:00,44.4,24.9,30.00,ENE,60,3.0,10.0,46,0.00,,---,0.00,VWS V14.01,2013-04-04 08:25:00,
2013-04-04 03:30:00,44.4,24.9,30.00,ENE,74,4.0,10.0,46,0.00,,---,0.00,VWS V14.01,2013-04-04 08:30:00,
2013-04-04 03:35:00,44.4,24.4,30.00,NE,55,5.0,8.0,45,0.00,,---,0.00,VWS V14.01,2013-04-04 08:35:00,
2013-04-04 03:40:00,44.4,24.4,30.00,East,97,2.0,9.0,45,0.00,,---,0.00,VWS V14.01,2013-04-04 08:40:00,
2013-04-04 03:45:00,44.3,24.8,30.00,ENE,65,2.0,9.0,46,0.00,,---,0.00,VWS V14.01,2013-04-04 08:45:00,
2013-04-04 03:50:00,44.3,24.8,30.00,East,98,7.0,9.0,46,0.00,,---,0.00,VWS V14.01,2013-04-04 08:50:00,
2013-04-04 03:56:00,44.2,24.8,30.00,East,93,3.0,9.0,46,0.00,,---,0.00,VWS V14.01,2013-04-04 08:56:00,
2013-04-04 04:01:00,44.2,24.8,30.00,ENE,63,4.0,9.0,46,0.00,,---,0.00,VWS V14.01,2013-04-04 09:01:00,
2013-04-04 04:06:00,44.2,24.8,30.00,ENE,62,3.0,5.0,46,0.00,,---,0.00,VWS V14.01,2013-04-04 09:06:00,
2013-04-04 04:11:00,44.1,24.7,30.00,ENE,67,3.0,6.0,46,0.00,,---,0.00,VWS V14.01,2013-04-04 09:11:00,
2013-04-04 04:16:00,44.1,24.7,30.00,ENE,71,3.0,6.0,46,0.00,,---,0.00,VWS V14.01,2013-04-04 09:16:00,
2013-04-04 04:21:00,44.1,24.7,30.00,East,91,5.0,7.0,46,0.00,,---,0.00,VWS V14.01,2013-04-04 09:21:00,
2013-04-04 04:26:00,44.1,24.7,30.00,NE,41,3.0,7.0,46,0.00,,---,0.00,VWS V14.01,2013-04-04 09:26:00,
2013-04-04 04:31:00,44.0,25.1,30.00,East,91,4.0,7.0,47,0.00,,---,0.00,VWS V14.01,2013-04-04 09:31:00,
2013-04-04 04:36:00,44.0,25.1,29.99,ENE,69,2.0,6.0,47,0.00,,---,0.00,VWS V14.01,2013-04-04 09:36:00,
2013-04-04 04:40:00,43.9,25.0,29.99,ENE,70,6.0,9.0,47,0.00,,---,0.00,VWS V14.01,2013-04-04 09:40:00,
2013-04-04 04:46:00,44.0,24.6,29.99,ENE,62,3.0,10.0,46,0.00,,---,0.00,VWS V14.01,2013-04-04 09:46:00,
2013-04-04 04:51:00,43.9,24.5,29.99,East,88,3.0,10.0,46,0.00,,---,0.00,VWS V14.01,2013-04-04 09:51:00,
2013-04-04 04:56:00,43.8,24.4,29.99,ENE,61,4.0,10.0,46,0.00,,---,0.00,VWS V14.01,2013-04-04 09:56:00,
2013-04-04 05:01:00,43.8,24.4,29.99,ENE,67,8.0,10.0,46,0.00,,---,0.00,VWS V14.01,2013-04-04 10:01:00,
2013-04-04 05:06:00,43.9,24.5,29.98,ENE,69,3.0,9.0,46,0.00,,---,0.00,VWS V14.01,2013-04-04 10:06:00,
2013-04-04 05:11:00,43.9,24.5,29.98,ENE,69,2.0,10.0,46,0.00,,---,0.00,VWS V14.01,2013-04-04 10:11:00,
2013-04-04 05:16:00,43.8,24.9,29.99,ENE,59,5.0,10.0,47,0.00,,---,0.00,VWS V14.01,2013-04-04 10:16:00,
2013-04-04 05:21:00,43.8,24.9,29.99,NE,55,3.0,10.0,47,0.00,,---,0.00,VWS V14.01,2013-04-04 10:21:00,
2013-04-04 05:26:00,43.8,24.9,29.99,ESE,108,6.0,10.0,47,0.00,,---,0.00,VWS V14.01,2013-04-04 10:26:00,
2013-04-04 05:31:00,43.7,24.8,29.99,ENE,69,3.0,10.0,47,0.00,,---,0.00,VWS V14.01,2013-04-04 10:31:00,
2013-04-04 05:36:00,43.7,25.3,29.98,ENE,58,2.0,4.0,48,0.00,,---,0.00,VWS V14.01,2013-04-04 10:36:00,
2013-04-04 05:41:00,43.4,25.5,29.98,NE,49,2.0,4.0,49,0.00,,---,0.00,VWS V14.01,2013-04-04 10:41:00,
2013-04-04 05:46:00,43.2,25.8,29.98,NE,44,4.0,4.0,50,0.00,,---,0.00,VWS V14.01,2013-04-04 10:46:00,
2013-04-04 05:51:00,43.1,25.7,29.98,NE,51,2.0,4.0,50,0.00,,---,0.00,VWS V14.01,2013-04-04 10:51:00,
2013-04-04 05:56:00,43.1,26.2,29.98,NE,51,3.0,5.0,51,0.00,,---,0.00,VWS V14.01,2013-04-04 10:56:00,
2013-04-04 06:01:00,43.0,25.6,29.98,NE,52,2.0,5.0,50,0.00,,---,0.00,VWS V14.01,2013-04-04 11:01:00,
2013-04-04 06:06:00,42.9,26.0,29.98,ENE,66,1.0,5.0,51,0.00,,---,0.00,VWS V14.01,2013-04-04 11:06:00,
2013-04-04 06:11:00,42.8,25.9,29.98,ENE,63,3.0,5.0,51,0.00,,---,0.00,VWS V14.01,2013-04-04 11:11:00,
2013-04-04 06:17:00,42.7,25.9,29.98,NE,39,4.0,5.0,51,0.00,,---,0.00,VWS V14.01,2013-04-04 11:17:00,
2013-04-04 06:22:00,42.7,25.9,29.98,NE,44,3.0,5.0,51,0.00,,---,0.00,VWS V14.01,2013-04-04 11:22:00,
2013-04-04 06:27:00,42.6,25.3,29.98,ENE,73,4.0,7.0,50,0.00,,---,0.00,VWS V14.01,2013-04-04 11:27:00,
2013-04-04 06:32:00,42.6,25.8,29.98,ENE,58,3.0,4.0,51,0.00,,---,0.00,VWS V14.01,2013-04-04 11:32:00,
2013-04-04 06:37:00,42.6,25.3,29.98,ENE,74,3.0,7.0,50,0.00,,---,0.00,VWS V14.01,2013-04-04 11:37:00,
2013-04-04 06:42:00,42.5,25.7,29.98,NE,49,2.0,7.0,51,0.00,,---,0.00,VWS V14.01,2013-04-04 11:42:00,
2013-04-04 06:47:00,42.5,25.7,29.98,NE,39,3.0,7.0,51,0.00,,---,0.00,VWS V14.01,2013-04-04 11:47:00,
2013-04-04 06:52:00,42.5,25.7,29.98,NE,45,3.0,7.0,51,0.00,,---,0.00,VWS V14.01,2013-04-04 11:52:00,
2013-04-04 06:57:00,42.5,25.7,29.98,NE,51,3.0,7.0,51,0.00,,---,0.00,VWS V14.01,2013-04-04 11:57:00,
2013-04-04 07:02:00,42.5,25.2,29.99,ENE,59,3.0,3.0,50,0.00,,---,0.00,VWS V14.01,2013-04-04 12:02:00,
2013-04-04 07:07:00,42.5,25.7,29.99,ENE,67,3.0,5.0,51,0.00,,---,0.00,VWS V14.01,2013-04-04 12:07:00,
2013-04-04 07:12:00,42.5,25.7,29.99,ENE,61,4.0,5.0,51,0.00,,---,0.00,VWS V14.01,2013-04-04 12:12:00,
2013-04-04 07:17:00,42.5,25.7,29.99,NE,40,1.0,5.0,51,0.00,,---,0.00,VWS V14.01,2013-04-04 12:17:00,
2013-04-04 07:22:00,42.5,26.1,29.99,NE,52,1.0,5.0,52,0.00,,---,0.00,VWS V14.01,2013-04-04 12:22:00,
2013-04-04 07:27:00,42.5,26.1,29.99,NE,46,3.0,5.0,52,0.00,,---,0.00,VWS V14.01,2013-04-04 12:27:00,
2013-04-04 07:32:00,42.3,26.9,29.99,ENE,63,3.0,3.0,54,0.00,,---,0.00,VWS V14.01,2013-04-04 12:32:00,
2013-04-04 07:37:00,42.1,27.5,29.99,ENE,63,2.0,4.0,56,0.00,,---,0.00,VWS V14.01,2013-04-04 12:37:00,
2013-04-04 07:42:00,41.8,28.1,29.99,NE,49,0.0,4.0,58,0.00,,---,0.00,VWS V14.01,2013-04-04 12:42:00,
2013-04-04 07:47:00,41.5,29.5,29.99,NE,50,0.0,4.0,62,0.00,,---,0.00,VWS V14.01,2013-04-04 12:47:00,
2013-04-04 07:52:00,41.2,29.2,29.99,NE,50,1.0,4.0,62,0.01,,---,0.01,VWS V14.01,2013-04-04 12:52:00,
2013-04-04 07:57:00,41.0,30.1,29.99,NE,49,0.0,4.0,65,0.01,,---,0.01,VWS V14.01,2013-04-04 12:57:00,
2013-04-04 08:02:00,40.8,31.1,29.99,NE,49,0.0,0.0,68,0.01,,---,0.01,VWS V14.01,2013-04-04 13:02:00,
2013-04-04 08:07:00,40.5,30.8,29.99,NE,50,0.0,1.0,68,0.01,,---,0.01,VWS V14.01,2013-04-04 13:07:00,
2013-04-04 08:12:00,40.4,30.3,29.99,NE,49,2.0,2.0,67,0.01,,---,0.01,VWS V14.01,2013-04-04 13:12:00,
2013-04-04 08:17:00,40.3,31.0,29.99,NE,50,0.0,2.0,69,0.01,,---,0.01,VWS V14.01,2013-04-04 13:17:00,
2013-04-04 08:22:00,40.2,31.9,29.99,NE,49,0.0,2.0,72,0.02,,---,0.02,VWS V14.01,2013-04-04 13:22:00,
2013-04-04 08:27:00,39.9,31.6,29.99,NE,49,0.0,2.0,72,0.02,,---,0.02,VWS V14.01,2013-04-04 13:27:00,
2013-04-04 08:32:00,39.7,31.8,29.99,NE,49,1.0,1.0,73,0.02,,---,0.02,VWS V14.01,2013-04-04 13:32:00,
2013-04-04 08:37:00,39.5,31.9,29.99,ENE,65,1.0,3.0,74,0.02,,---,0.02,VWS V14.01,2013-04-04 13:37:00,
2013-04-04 08:42:00,39.4,31.8,29.99,ENE,65,0.0,3.0,74,0.03,,---,0.03,VWS V14.01,2013-04-04 13:42:00,
2013-04-04 08:47:00,39.3,32.4,29.99,ENE,63,0.0,3.0,76,0.03,,---,0.03,VWS V14.01,2013-04-04 13:47:00,
2013-04-04 08:52:00,39.4,32.8,29.99,ENE,63,0.0,3.0,77,0.03,,---,0.03,VWS V14.01,2013-04-04 13:52:00,
2013-04-04 08:57:00,39.3,32.4,29.99,ENE,73,0.0,3.0,76,0.03,,---,0.03,VWS V14.01,2013-04-04 13:57:00,
2013-04-04 09:02:00,39.3,32.7,29.99,NE,36,0.0,2.0,77,0.02,,---,0.03,VWS V14.01,2013-04-04 14:02:00,
2013-04-04 09:07:00,39.4,32.8,29.99,NE,53,2.0,4.0,77,0.02,,---,0.03,VWS V14.01,2013-04-04 14:07:00,
2013-04-04 09:12:00,39.4,32.5,29.99,NE,42,1.0,6.0,76,0.03,,---,0.04,VWS V14.01,2013-04-04 14:12:00,
2013-04-04 09:17:00,39.5,32.9,29.99,ENE,57,4.0,6.0,77,0.03,,---,0.04,VWS V14.01,2013-04-04 14:17:00,
2013-04-04 09:22:00,39.6,33.0,29.99,East,80,3.0,6.0,77,0.03,,---,0.04,VWS V14.01,2013-04-04 14:22:00,
2013-04-04 09:27:00,39.7,33.1,29.99,ENE,70,3.0,6.0,77,0.03,,---,0.04,VWS V14.01,2013-04-04 14:27:00,
2013-04-04 09:32:00,39.7,32.1,29.99,ENE,64,3.0,6.0,74,0.02,,---,0.04,VWS V14.01,2013-04-04 14:32:00,
2013-04-04 09:37:00,39.7,32.4,29.99,East,98,3.0,6.0,75,0.02,,---,0.04,VWS V14.01,2013-04-04 14:37:00,
2013-04-04 09:42:00,39.8,33.2,29.99,ENE,70,2.0,6.0,77,0.02,,---,0.04,VWS V14.01,2013-04-04 14:42:00,
2013-04-04 09:47:00,39.9,33.6,29.99,East,79,3.0,6.0,78,0.02,,---,0.04,VWS V14.01,2013-04-04 14:47:00,
2013-04-04 09:52:00,39.8,33.5,29.99,ENE,68,2.0,6.0,78,0.02,,---,0.04,VWS V14.01,2013-04-04 14:52:00,
2013-04-04 09:57:00,40.0,34.0,29.99,ENE,63,3.0,6.0,79,0.02,,---,0.04,VWS V14.01,2013-04-04 14:57:00,
2013-04-04 10:02:00,40.1,34.1,29.99,East,82,2.0,3.0,79,0.01,,---,0.04,VWS V14.01,2013-04-04 15:02:00,
2013-04-04 10:07:00,40.2,34.5,29.99,NE,51,2.0,3.0,80,0.01,,---,0.04,VWS V14.01,2013-04-04 15:07:00,
2013-04-04 10:12:00,40.2,34.2,29.99,ENE,59,3.0,3.0,79,0.02,,---,0.05,VWS V14.01,2013-04-04 15:12:00,
2013-04-04 10:17:00,40.1,33.8,30.00,ENE,71,2.0,5.0,78,0.02,,---,0.05,VWS V14.01,2013-04-04 15:17:00,
2013-04-04 10:22:00,40.2,33.9,30.00,ENE,61,3.0,5.0,78,0.02,,---,0.05,VWS V14.01,2013-04-04 15:22:00,
2013-04-04 10:27:00,40.2,33.6,30.00,ENE,78,5.0,6.0,77,0.02,,---,0.05,VWS V14.01,2013-04-04 15:27:00,
2013-04-04 10:33:00,40.1,33.5,30.00,East,92,3.0,5.0,77,0.01,,---,0.05,VWS V14.01,2013-04-04 15:33:00,
2013-04-04 10:38:00,40.2,33.9,30.00,NE,44,3.0,5.0,78,0.01,,---,0.05,VWS V14.01,2013-04-04 15:38:00,
2013-04-04 10:43:00,40.2,33.9,30.00,ENE,65,1.0,5.0,78,0.02,,---,0.06,VWS V14.01,2013-04-04 15:43:00,
2013-04-04 10:48:00,40.2,34.2,30.00,East,79,1.0,5.0,79,0.02,,---,0.06,VWS V14.01,2013-04-04 15:48:00,
2013-04-04 10:53:00,40.3,34.3,30.00,NE,42,2.0,5.0,79,0.02,,---,0.06,VWS V14.01,2013-04-04 15:53:00,
2013-04-04 10:58:00,40.3,34.3,30.00,NE,42,2.0,5.0,79,0.02,,---,0.06,VWS V14.01,2013-04-04 15:58:00,
2013-04-04 11:03:00,40.4,34.7,30.00,ENE,71,2.0,4.0,80,0.03,,---,0.07,VWS V14.01,2013-04-04 16:03:00,
2013-04-04 11:08:00,40.6,35.2,30.00,East,79,2.0,4.0,81,0.03,,---,0.07,VWS V14.01,2013-04-04 16:08:00,
2013-04-04 11:13:00,40.8,35.4,30.00,ENE,59,3.0,4.0,81,0.03,,---,0.07,VWS V14.01,2013-04-04 16:13:00,
2013-04-04 11:18:00,40.9,35.2,30.00,ENE,70,3.0,4.0,80,0.03,,---,0.07,VWS V14.01,2013-04-04 16:18:00,
2013-04-04 11:23:00,40.6,34.6,30.00,NNE,27,4.0,6.0,79,0.03,,---,0.07,VWS V14.01,2013-04-04 16:23:00,
2013-04-04 11:28:00,41.0,35.3,30.00,ESE,107,3.0,6.0,80,0.03,,---,0.07,VWS V14.01,2013-04-04 16:28:00,
2013-04-04 11:33:00,41.1,35.1,29.99,ESE,107,4.0,7.0,79,0.02,,---,0.07,VWS V14.01,2013-04-04 16:33:00,
2013-04-04 11:38:00,41.5,35.8,29.99,ENE,71,3.0,7.0,80,0.02,,---,0.07,VWS V14.01,2013-04-04 16:38:00,
2013-04-04 11:43:00,41.9,36.5,29.99,ESE,109,2.0,7.0,81,0.02,,---,0.07,VWS V14.01,2013-04-04 16:43:00,
2013-04-04 11:48:00,42.0,36.0,29.99,East,101,3.0,7.0,79,0.02,,---,0.07,VWS V14.01,2013-04-04 16:48:00,
2013-04-04 11:53:00,42.4,37.0,29.99,ENE,61,3.0,7.0,81,0.02,,---,0.07,VWS V14.01,2013-04-04 16:53:00,
2013-04-04 11:58:00,42.5,36.5,29.99,East,88,1.0,7.0,79,0.02,,---,0.07,VWS V14.01,2013-04-04 16:58:00,
2013-04-04 12:03:00,42.7,36.7,29.98,ENE,71,1.0,5.0,79,0.00,,---,0.07,VWS V14.01,2013-04-04 17:03:00,
2013-04-04 12:08:00,43.2,37.5,29.98,East,88,0.0,5.0,80,0.00,,---,0.07,VWS V14.01,2013-04-04 17:08:00,
2013-04-04 12:13:00,43.1,36.4,29.98,East,85,3.0,6.0,77,0.00,,---,0.07,VWS V14.01,2013-04-04 17:13:00,
2013-04-04 12:18:00,43.4,37.3,29.97,ESE,107,2.0,6.0,79,0.00,,---,0.07,VWS V14.01,2013-04-04 17:18:00,
2013-04-04 12:23:00,43.5,36.8,29.97,East,86,3.0,6.0,77,0.00,,---,0.07,VWS V14.01,2013-04-04 17:23:00,
2013-04-04 12:28:00,43.5,37.1,29.97,ENE,67,0.0,6.0,78,0.00,,---,0.07,VWS V14.01,2013-04-04 17:28:00,
2013-04-04 12:33:00,43.9,37.2,29.97,ENE,71,2.0,5.0,77,0.00,,---,0.07,VWS V14.01,2013-04-04 17:33:00,
2013-04-04 12:38:00,44.2,38.1,29.97,ESE,103,1.0,6.0,79,0.00,,---,0.07,VWS V14.01,2013-04-04 17:38:00,
2013-04-04 12:43:00,44.4,38.3,29.97,ENE,71,1.0,6.0,79,0.00,,---,0.07,VWS V14.01,2013-04-04 17:43:00,
2013-04-04 12:48:00,44.1,37.7,29.97,East,101,3.0,7.0,78,0.00,,---,0.07,VWS V14.01,2013-04-04 17:48:00,
2013-04-04 12:53:00,44.3,38.2,29.97,South,170,0.0,7.0,79,0.00,,---,0.07,VWS V14.01,2013-04-04 17:53:00,
2013-04-04 12:58:00,44.5,38.1,29.97,ESE,109,2.0,7.0,78,0.00,,---,0.07,VWS V14.01,2013-04-04 17:58:00,
2013-04-04 13:03:00,44.7,38.3,29.96,ESE,113,5.0,7.0,78,0.00,,---,0.07,VWS V14.01,2013-04-04 18:03:00,
2013-04-04 13:08:00,44.7,38.9,29.96,East,101,5.0,7.0,80,0.00,,---,0.07,VWS V14.01,2013-04-04 18:08:00,
2013-04-04 13:13:00,44.5,38.4,29.96,ESE,122,1.0,7.0,79,0.00,,---,0.07,VWS V14.01,2013-04-04 18:13:00,
2013-04-04 13:18:00,44.7,39.2,29.96,ESE,107,2.0,7.0,81,0.00,,---,0.07,VWS V14.01,2013-04-04 18:18:00,
2013-04-04 13:23:00,44.4,38.3,29.96,ENE,74,2.0,7.0,79,0.00,,---,0.07,VWS V14.01,2013-04-04 18:23:00,
2013-04-04 13:28:00,44.5,38.7,29.96,East,85,3.0,7.0,80,0.00,,---,0.07,VWS V14.01,2013-04-04 18:28:00,
2013-04-04 13:33:00,44.3,38.2,29.95,East,91,5.0,6.0,79,0.00,,---,0.07,VWS V14.01,2013-04-04 18:33:00,
2013-04-04 13:38:00,44.0,37.9,29.95,East,87,2.0,6.0,79,0.00,,---,0.07,VWS V14.01,2013-04-04 18:38:00,
2013-04-04 13:43:00,43.8,38.0,29.95,East,91,3.0,6.0,80,0.00,,---,0.07,VWS V14.01,2013-04-04 18:43:00,
2013-04-04 13:48:00,43.9,38.5,29.95,East,94,3.0,6.0,81,0.00,,---,0.07,VWS V14.01,2013-04-04 18:48:00,
2013-04-04 13:53:00,44.0,38.5,29.95,ENE,71,2.0,6.0,81,0.01,,---,0.08,VWS V14.01,2013-04-04 18:53:00,
2013-04-04 13:58:00,44.1,39.0,29.95,ENE,65,3.0,6.0,82,0.01,,---,0.08,VWS V14.01,2013-04-04 18:58:00,
2013-04-04 14:03:00,44.1,39.0,29.95,ENE,67,0.0,0.0,82,0.01,,---,0.08,VWS V14.01,2013-04-04 19:03:00,
2013-04-04 14:08:00,44.2,39.1,29.95,ENE,67,0.0,2.0,82,0.01,,---,0.08,VWS V14.01,2013-04-04 19:08:00,
2013-04-04 14:13:00,44.3,39.2,29.95,ENE,67,0.0,3.0,82,0.01,,---,0.08,VWS V14.01,2013-04-04 19:13:00,
2013-04-04 14:18:00,44.2,39.1,29.94,NE,50,0.0,3.0,82,0.01,,---,0.08,VWS V14.01,2013-04-04 19:18:00,
2013-04-04 14:23:00,44.1,39.0,29.94,NE,49,0.0,3.0,82,0.02,,---,0.09,VWS V14.01,2013-04-04 19:23:00,
2013-04-04 14:28:00,44.2,39.4,29.94,NE,50,0.0,3.0,83,0.03,,---,0.10,VWS V14.01,2013-04-04 19:28:00,
2013-04-04 14:33:00,44.3,39.5,29.94,ENE,60,0.0,4.0,83,0.03,,---,0.10,VWS V14.01,2013-04-04 19:33:00,
2013-04-04 14:38:00,44.2,39.4,29.94,ENE,60,0.0,4.0,83,0.03,,---,0.10,VWS V14.01,2013-04-04 19:38:00,
2013-04-04 14:43:00,44.5,40.3,29.94,NNE,24,0.0,4.0,85,0.03,,---,0.10,VWS V14.01,2013-04-04 19:43:00,
2013-04-04 14:48:00,44.6,40.1,29.93,North,360,2.0,4.0,84,0.03,,---,0.10,VWS V14.01,2013-04-04 19:48:00,
2013-04-04 14:53:00,44.7,40.5,29.93,North,355,3.0,4.0,85,0.03,,---,0.10,VWS V14.01,2013-04-04 19:53:00,
2013-04-04 14:58:00,44.7,40.5,29.93,NNE,22,1.0,4.0,85,0.03,,---,0.10,VWS V14.01,2013-04-04 19:58:00,
2013-04-04 15:03:00,44.9,40.7,29.93,North,355,1.0,3.0,85,0.02,,---,0.10,VWS V14.01,2013-04-04 20:03:00,
2013-04-04 15:08:00,45.0,40.8,29.93,North,9,0.0,3.0,85,0.02,,---,0.10,VWS V14.01,2013-04-04 20:08:00,
2013-04-04 15:13:00,45.0,40.8,29.93,NE,53,2.0,3.0,85,0.02,,---,0.10,VWS V14.01,2013-04-04 20:13:00,
2013-04-04 15:18:00,44.9,40.7,29.92,NNE,16,0.0,4.0,85,0.02,,---,0.10,VWS V14.01,2013-04-04 20:18:00,
2013-04-04 15:23:00,45.1,41.2,29.92,ENE,61,2.0,4.0,86,0.02,,---,0.10,VWS V14.01,2013-04-04 20:23:00,
2013-04-04 15:28:00,45.2,41.3,29.92,NNE,15,0.0,4.0,86,0.02,,---,0.10,VWS V14.01,2013-04-04 20:28:00,
2013-04-04 15:33:00,45.4,41.5,29.92,North,360,1.0,2.0,86,0.00,,---,0.10,VWS V14.01,2013-04-04 20:33:00,
2013-04-04 15:38:00,45.5,42.5,29.92,NNE,19,3.0,4.0,89,0.00,,---,0.10,VWS V14.01,2013-04-04 20:38:00,
2013-04-04 15:44:00,45.6,41.4,29.92,NNW,346,5.0,5.0,85,0.00,,---,0.10,VWS V14.01,2013-04-04 20:44:00,
2013-04-04 15:49:00,45.6,41.4,29.91,North,355,3.0,5.0,85,0.00,,---,0.10,VWS V14.01,2013-04-04 20:49:00,
2013-04-04 15:54:00,45.8,41.5,29.91,North,349,0.0,5.0,85,0.00,,---,0.10,VWS V14.01,2013-04-04 20:54:00,
2013-04-04 15:59:00,46.2,41.6,29.91,NNE,15,0.0,5.0,84,0.00,,---,0.10,VWS V14.01,2013-04-04 20:59:00,
2013-04-04 16:04:00,46.6,42.0,29.91,ENE,67,4.0,4.0,84,0.00,,---,0.10,VWS V14.01,2013-04-04 21:04:00,
2013-04-04 16:09:00,46.6,41.7,29.91,NE,40,0.0,4.0,83,0.00,,---,0.10,VWS V14.01,2013-04-04 21:09:00,
2013-04-04 16:14:00,46.5,41.3,29.91,ENE,59,1.0,5.0,82,0.01,,---,0.11,VWS V14.01,2013-04-04 21:14:00,
2013-04-04 16:19:00,46.5,41.6,29.91,ENE,58,0.0,5.0,83,0.01,,---,0.11,VWS V14.01,2013-04-04 21:19:00,
2013-04-04 16:24:00,46.7,41.8,29.91,ENE,64,1.0,5.0,83,0.01,,---,0.11,VWS V14.01,2013-04-04 21:24:00,
2013-04-04 16:29:00,46.6,41.7,29.91,ENE,73,0.0,5.0,83,0.01,,---,0.11,VWS V14.01,2013-04-04 21:29:00,
2013-04-04 16:34:00,46.8,42.2,29.90,NNE,32,0.0,3.0,84,0.01,,---,0.11,VWS V14.01,2013-04-04 21:34:00,
2013-04-04 16:39:00,47.1,42.5,29.90,ENE,59,0.0,4.0,84,0.01,,---,0.11,VWS V14.01,2013-04-04 21:39:00,
2013-04-04 16:44:00,47.4,42.8,29.90,NE,36,2.0,4.0,84,0.01,,---,0.11,VWS V14.01,2013-04-04 21:44:00,
2013-04-04 16:49:00,47.3,42.4,29.89,East,80,2.0,5.0,83,0.01,,---,0.11,VWS V14.01,2013-04-04 21:49:00,
2013-04-04 16:54:00,47.2,42.3,29.89,NE,47,3.0,6.0,83,0.02,,---,0.12,VWS V14.01,2013-04-04 21:54:00,
2013-04-04 16:59:00,47.0,42.1,29.89,ENE,71,1.0,6.0,83,0.02,,---,0.12,VWS V14.01,2013-04-04 21:59:00,
2013-04-04 17:04:00,47.2,42.6,29.90,ENE,65,2.0,3.0,84,0.02,,---,0.12,VWS V14.01,2013-04-04 22:04:00,
2013-04-04 17:09:00,47.0,42.1,29.90,ENE,69,2.0,6.0,83,0.02,,---,0.12,VWS V14.01,2013-04-04 22:09:00,
2013-04-04 17:14:00,47.1,42.2,29.90,East,93,1.0,6.0,83,0.02,,---,0.12,VWS V14.01,2013-04-04 22:14:00,
2013-04-04 17:20:00,47.0,42.1,29.89,ENE,78,3.0,6.0,83,0.02,,---,0.12,VWS V14.01,2013-04-04 22:20:00,
2013-04-04 17:25:00,47.1,42.5,29.89,East,90,0.0,6.0,84,0.02,,---,0.12,VWS V14.01,2013-04-04 22:25:00,
2013-04-04 17:30:00,47.2,42.6,29.89,East,90,3.0,6.0,84,0.02,,---,0.12,VWS V14.01,2013-04-04 22:30:00,
2013-04-04 17:35:00,47.1,42.5,29.89,East,90,1.0,4.0,84,0.01,,---,0.12,VWS V14.01,2013-04-04 22:35:00,
2013-04-04 17:40:00,47.0,42.7,29.89,ESE,111,3.0,4.0,85,0.01,,---,0.12,VWS V14.01,2013-04-04 22:40:00,
2013-04-04 17:45:00,47.0,42.4,29.89,ENE,70,3.0,6.0,84,0.01,,---,0.12,VWS V14.01,2013-04-04 22:45:00,
2013-04-04 17:50:00,46.9,42.3,29.90,ENE,65,2.0,6.0,84,0.01,,---,0.12,VWS V14.01,2013-04-04 22:50:00,
2013-04-04 17:55:00,46.9,42.6,29.90,ENE,65,1.0,6.0,85,0.01,,---,0.12,VWS V14.01,2013-04-04 22:55:00,
2013-04-04 18:00:00,47.0,42.7,29.90,ENE,65,0.0,6.0,85,0.01,,---,0.12,VWS V14.01,2013-04-04 23:00:00,
2013-04-04 18:05:00,46.9,42.3,29.91,NE,37,0.0,3.0,84,0.00,,---,0.12,VWS V14.01,2013-04-04 23:05:00,
2013-04-04 18:10:00,46.9,42.0,29.91,NE,36,0.0,3.0,83,0.00,,---,0.12,VWS V14.01,2013-04-04 23:10:00,
2013-04-04 18:15:00,47.0,42.4,29.91,NE,35,0.0,3.0,84,0.00,,---,0.12,VWS V14.01,2013-04-04 23:15:00,
2013-04-04 18:20:00,47.1,42.5,29.91,NE,36,0.0,3.0,84,0.00,,---,0.12,VWS V14.01,2013-04-04 23:20:00,
2013-04-04 18:25:00,47.1,42.5,29.91,NE,36,0.0,3.0,84,0.00,,---,0.12,VWS V14.01,2013-04-04 23:25:00,
2013-04-04 18:30:00,47.0,42.4,29.91,NE,36,0.0,3.0,84,0.00,,---,0.12,VWS V14.01,2013-04-04 23:30:00,
2013-04-04 18:35:00,47.1,42.5,29.91,NE,36,0.0,1.0,84,0.00,,---,0.12,VWS V14.01,2013-04-04 23:35:00,
2013-04-04 18:40:00,47.1,42.5,29.91,NE,36,1.0,1.0,84,0.00,,---,0.12,VWS V14.01,2013-04-04 23:40:00,
2013-04-04 18:45:00,47.1,42.5,29.91,NE,36,0.0,2.0,84,0.00,,---,0.12,VWS V14.01,2013-04-04 23:45:00,
2013-04-04 18:50:00,47.2,42.9,29.91,NE,36,0.0,2.0,85,0.00,,---,0.12,VWS V14.01,2013-04-04 23:50:00,
2013-04-04 18:55:00,47.2,42.9,29.91,NE,34,0.0,2.0,85,0.00,,---,0.12,VWS V14.01,2013-04-04 23:55:00,
2013-04-04 19:00:00,47.2,42.9,29.91,NE,36,0.0,2.0,85,0.00,,---,0.12,VWS V14.01,2013-04-05 00:00:00,
2013-04-04 19:05:00,47.2,42.9,29.91,NE,35,0.0,0.0,85,0.00,,---,0.12,VWS V14.01,2013-04-05 00:05:00,
2013-04-04 19:10:00,47.1,42.8,29.91,NE,36,0.0,0.0,85,0.00,,---,0.12,VWS V14.01,2013-04-05 00:10:00,
2013-04-04 19:15:00,47.1,42.8,29.91,NE,36,0.0,0.0,85,0.00,,---,0.12,VWS V14.01,2013-04-05 00:15:00,
2013-04-04 19:20:00,47.0,42.7,29.91,NE,36,0.0,1.0,85,0.00,,---,0.12,VWS V14.01,2013-04-05 00:20:00,
2013-04-04 19:25:00,47.0,42.7,29.91,NE,36,0.0,1.0,85,0.00,,---,0.12,VWS V14.01,2013-04-05 00:25:00,
2013-04-04 19:30:00,47.0,42.7,29.91,NE,36,0.0,1.0,85,0.00,,---,0.12,VWS V14.01,2013-04-05 00:30:00,
2013-04-04 19:35:00,46.9,42.6,29.91,NE,36,0.0,0.0,85,0.00,,---,0.12,VWS V14.01,2013-04-05 00:35:00,
2013-04-04 19:40:00,46.9,42.6,29.91,NE,36,0.0,0.0,85,0.00,,---,0.12,VWS V14.01,2013-04-05 00:40:00,
2013-04-04 19:45:00,46.9,42.6,29.91,NE,36,0.0,0.0,85,0.00,,---,0.12,VWS V14.01,2013-04-05 00:45:00,
2013-04-04 19:50:00,46.8,42.8,29.90,NE,36,0.0,0.0,86,0.00,,---,0.12,VWS V14.01,2013-04-05 00:50:00,
2013-04-04 19:55:00,46.8,42.8,29.90,NE,36,0.0,1.0,86,0.00,,---,0.12,VWS V14.01,2013-04-05 00:55:00,
2013-04-04 20:01:00,46.8,42.8,29.90,NE,36,0.0,1.0,86,0.00,,---,0.12,VWS V14.01,2013-04-05 01:01:00,
2013-04-04 20:05:00,46.8,42.8,29.91,NE,36,0.0,0.0,86,0.00,,---,0.12,VWS V14.01,2013-04-05 01:05:00,
2013-04-04 20:10:00,46.7,42.7,29.91,NE,36,0.0,0.0,86,0.00,,---,0.12,VWS V14.01,2013-04-05 01:10:00,
2013-04-04 20:16:00,46.7,43.0,29.91,NE,36,0.0,0.0,87,0.00,,---,0.12,VWS V14.01,2013-04-05 01:16:00,
2013-04-04 20:20:00,46.7,43.0,29.91,NE,36,0.0,0.0,87,0.00,,---,0.12,VWS V14.01,2013-04-05 01:20:00,
2013-04-04 20:25:00,46.7,43.0,29.91,NE,36,0.0,0.0,87,0.00,,---,0.12,VWS V14.01,2013-04-05 01:25:00,
2013-04-04 20:30:00,46.7,43.0,29.91,NE,36,0.0,0.0,87,0.00,,---,0.12,VWS V14.01,2013-04-05 01:30:00,
2013-04-04 20:35:00,46.7,43.0,29.91,NE,36,0.0,0.0,87,0.00,,---,0.12,VWS V14.01,2013-04-05 01:35:00,
2013-04-04 20:40:00,46.8,43.1,29.91,NE,36,1.0,1.0,87,0.00,,---,0.12,VWS V14.01,2013-04-05 01:40:00,
2013-04-04 20:45:00,46.7,43.0,29.91,NE,36,0.0,1.0,87,0.00,,---,0.12,VWS V14.01,2013-04-05 01:45:00,
2013-04-04 20:51:00,46.7,43.0,29.91,NE,36,0.0,1.0,87,0.00,,---,0.12,VWS V14.01,2013-04-05 01:51:00,
2013-04-04 20:56:00,46.7,43.0,29.91,NE,36,0.0,1.0,87,0.00,,---,0.12,VWS V14.01,2013-04-05 01:56:00,
2013-04-04 21:01:00,46.7,43.0,29.91,NE,36,0.0,1.0,87,0.00,,---,0.12,VWS V14.01,2013-04-05 02:01:00,
2013-04-04 21:06:00,46.8,43.4,29.91,NE,36,0.0,1.0,88,0.00,,---,0.12,VWS V14.01,2013-04-05 02:06:00,
2013-04-04 21:10:00,46.8,43.1,29.91,NE,36,0.0,1.0,87,0.00,,---,0.12,VWS V14.01,2013-04-05 02:10:00,
2013-04-04 21:15:00,46.8,43.4,29.91,NE,36,0.0,1.0,88,0.00,,---,0.12,VWS V14.01,2013-04-05 02:15:00,
2013-04-04 21:20:00,46.8,43.4,29.92,NE,36,0.0,1.0,88,0.00,,---,0.12,VWS V14.01,2013-04-05 02:20:00,
2013-04-04 21:25:00,46.8,43.4,29.92,NE,36,0.0,1.0,88,0.00,,---,0.12,VWS V14.01,2013-04-05 02:25:00,
2013-04-04 21:30:00,46.8,43.4,29.92,NE,36,0.0,1.0,88,0.00,,---,0.12,VWS V14.01,2013-04-05 02:30:00,
2013-04-04 21:36:00,46.8,43.4,29.92,NE,36,0.0,0.0,88,0.00,,---,0.12,VWS V14.01,2013-04-05 02:36:00,
2013-04-04 21:41:00,46.8,43.4,29.92,NE,36,0.0,0.0,88,0.00,,---,0.12,VWS V14.01,2013-04-05 02:41:00,
2013-04-04 21:46:00,46.8,43.4,29.92,NE,36,0.0,0.0,88,0.00,,---,0.12,VWS V14.01,2013-04-05 02:46:00,
2013-04-04 21:51:00,46.9,43.5,29.92,NE,36,0.0,0.0,88,0.00,,---,0.12,VWS V14.01,2013-04-05 02:51:00,
2013-04-04 21:56:00,46.8,43.4,29.92,NE,36,0.0,0.0,88,0.00,,---,0.12,VWS V14.01,2013-04-05 02:56:00,
2013-04-04 22:01:00,46.8,43.4,29.92,NE,36,0.0,0.0,88,0.00,,---,0.12,VWS V14.01,2013-04-05 03:01:00,
2013-04-04 22:06:00,46.8,43.7,29.92,NE,36,0.0,0.0,89,0.00,,---,0.12,VWS V14.01,2013-04-05 03:06:00,
2013-04-04 22:11:00,46.8,43.7,29.92,NE,36,0.0,0.0,89,0.00,,---,0.12,VWS V14.01,2013-04-05 03:11:00,
2013-04-04 22:16:00,46.8,43.7,29.92,NE,36,0.0,0.0,89,0.00,,---,0.12,VWS V14.01,2013-04-05 03:16:00,
2013-04-04 22:21:00,46.7,43.6,29.92,NE,36,0.0,0.0,89,0.00,,---,0.12,VWS V14.01,2013-04-05 03:21:00,
2013-04-04 22:26:00,46.7,43.6,29.92,NE,36,0.0,0.0,89,0.00,,---,0.12,VWS V14.01,2013-04-05 03:26:00,
2013-04-04 22:31:00,46.6,43.5,29.91,NE,36,0.0,0.0,89,0.00,,---,0.12,VWS V14.01,2013-04-05 03:31:00,
2013-04-04 22:36:00,46.6,43.5,29.91,NE,36,0.0,0.0,89,0.00,,---,0.12,VWS V14.01,2013-04-05 03:36:00,
2013-04-04 22:41:00,46.6,43.5,29.91,NE,36,0.0,0.0,89,0.00,,---,0.12,VWS V14.01,2013-04-05 03:41:00,
2013-04-04 22:46:00,46.5,43.4,29.91,NE,36,0.0,0.0,89,0.00,,---,0.12,VWS V14.01,2013-04-05 03:46:00,
2013-04-04 22:51:00,46.5,43.4,29.91,NE,36,0.0,0.0,89,0.00,,---,0.12,VWS V14.01,2013-04-05 03:51:00,
2013-04-04 22:56:00,46.5,43.4,29.91,NE,36,0.0,1.0,89,0.00,,---,0.12,VWS V14.01,2013-04-05 03:56:00,
2013-04-04 23:00:00,46.5,43.4,29.91,NE,36,0.0,1.0,89,0.00,,---,0.12,VWS V14.01,2013-04-05 04:00:00,
2013-04-04 23:05:00,46.4,43.3,29.92,NE,36,0.0,0.0,89,0.00,,---,0.12,VWS V14.01,2013-04-05 04:05:00,
2013-04-04 23:10:00,46.3,43.5,29.92,NE,36,0.0,0.0,90,0.00,,---,0.12,VWS V14.01,2013-04-05 04:10:00,
2013-04-04 23:15:00,46.3,43.5,29.92,NE,36,0.0,0.0,90,0.00,,---,0.12,VWS V14.01,2013-04-05 04:15:00,
2013-04-04 23:20:00,46.3,43.5,29.92,NE,36,0.0,1.0,90,0.00,,---,0.12,VWS V14.01,2013-04-05 04:20:00,
2013-04-04 23:25:00,46.2,43.4,29.92,NE,36,0.0,1.0,90,0.00,,---,0.12,VWS V14.01,2013-04-05 04:25:00,
2013-04-04 23:30:00,46.2,43.4,29.92,NE,36,1.0,1.0,90,0.00,,---,0.12,VWS V14.01,2013-04-05 04:30:00,
2013-04-04 23:35:00,46.1,43.3,29.92,NE,36,0.0,1.0,90,0.00,,---,0.12,VWS V14.01,2013-04-05 04:35:00,
2013-04-04 23:40:00,45.9,43.1,29.92,NE,36,0.0,1.0,90,0.00,,---,0.12,VWS V14.01,2013-04-05 04:40:00,
2013-04-04 23:45:00,45.8,43.0,29.92,NE,36,0.0,1.0,90,0.00,,---,0.12,VWS V14.01,2013-04-05 04:45:00,
2013-04-04 23:50:00,45.6,42.8,29.92,NE,36,0.0,1.0,90,0.00,,---,0.12,VWS V14.01,2013-04-05 04:50:00,
2013-04-04 23:55:00,45.5,42.7,29.92,NE,36,0.0,1.0,90,0.00,,---,0.12,VWS V14.01,2013-04-05 04:55:00,